Weather History for KMMH - September, 2013

Change the Weather History Date:

Tuesday, September 17, 2013

  Actual Average (KBIH) Record (KBIH)
Temperature  
Mean Temperature 55 °F 67 °F  
Max Temperature 71 °F 88 °F 97 °F (2000)
Min Temperature 39 °F 47 °F 36 °F (2006)
Degree Days  
Heating Degree Days 10 1  
Month to date heating degree days 10  
Since 1 July heating degree days 12  
Cooling Degree Days 0 4  
Month to date cooling degree days 91  
Year to date cooling degree days 1068  
Growing Degree Days 5 (Base 50)    
Moisture  
Dew Point 25 °F    
Average Humidity 33    
Maximum Humidity 61    
Minimum Humidity 12    
Precipitation  
Precipitation 0.00 in 0.00 in 0.06 in (1999)
Month to date precipitation 0.08  
Year to date precipitation 3.45  
Snow  
Snow 0.00 in 0.00 in - ()
Month to date snowfall 0.0  
Since 1 July snowfall 0.0  
Since 1 September snowfall 0.0  
Snow Depth -    
Sea Level Pressure  
Sea Level Pressure 30.00 in    
Wind  
Wind Speed 9 mph (SSW)    
Max Wind Speed 34 mph    
Max Gust Speed 55 mph    
Visibility 10 miles    
Events      
T = Trace of Precipitation, MM = Missing Value Source: NWS Daily Summary

Daily Weather History Graph

Daily Weather History Graph

Search for Another Location

Airport or City:

Trip Planner

Search our weather history database for the weather conditions in past years. The results will help you decide how hot, cold, wet, or windy it might be!

Date:

Astronomy

Sep. 17, 2013 Rise Set
Actual Time 6:39 AM PDT 6:59 PM PDT
Civil Twilight 6:13 AM PDT 7:25 PM PDT
Nautical Twilight 5:42 AM PDT 7:56 PM PDT
Astronomical Twilight 5:10 AM PDT 8:27 PM PDT
Moon 5:48 PM PDT (9/17) 4:40 AM PDT (9/17)
Length of Visible Light 13h 12m
Length of Day
12h 20m
Waxing Gibbous, 96% of the Moon is Illuminated
Sep 17
Waxing Gibbous
Sep 19
Full
Sep 26
Last Quarter
Oct 4
New
Oct 11
First Quarter

Hourly Weather History & Observations

Time (PDT) Temp. Windchill Dew Point Humidity Pressure Visibility Wind Dir Wind Speed Gust Speed Precip Events Conditions
12:15 AM 48.2 °F - 28.4 °F 46% 30.09 in 10.0 mi East 4.6 mph - N/A   Clear
12:35 AM 50.0 °F - 30.2 °F 47% 30.09 in 10.0 mi South 3.5 mph - N/A   Clear
12:55 AM 48.2 °F - 30.2 °F 50% 30.08 in 10.0 mi Calm Calm - N/A   Clear
1:15 AM 48.2 °F - 30.2 °F 50% 30.08 in 10.0 mi Calm Calm - N/A   Clear
1:35 AM 48.2 °F - 28.4 °F 46% 30.08 in 10.0 mi Calm Calm - N/A   Clear
1:55 AM 44.6 °F 43.1 °F 26.6 °F 49% 30.07 in 10.0 mi NNE 3.5 mph - N/A   Clear
2:15 AM 39.2 °F - 26.6 °F 61% 30.07 in 10.0 mi Calm Calm - N/A   Clear
2:35 AM 44.6 °F 43.1 °F 24.8 °F 46% 30.06 in 10.0 mi ESE 3.5 mph - N/A   Clear
2:55 AM 46.4 °F 43.5 °F 28.4 °F 50% 30.05 in 10.0 mi South 5.8 mph - N/A   Clear
3:15 AM 44.6 °F 41.4 °F 30.2 °F 57% 30.05 in 10.0 mi SSE 5.8 mph - N/A   Clear
3:35 AM 46.4 °F 45.2 °F 32.0 °F 57% 30.04 in 10.0 mi ESE 3.5 mph - N/A   Clear
3:55 AM 42.8 °F 38.0 °F 30.2 °F 61% 30.03 in 10.0 mi East 8.1 mph - N/A   Clear
4:35 AM 48.2 °F - 28.4 °F 46% 30.02 in 10.0 mi SE 6.9 mph - N/A   Clear
5:15 AM 50.0 °F - 26.6 °F 40% 30.01 in 10.0 mi South 8.1 mph - N/A   Clear
5:35 AM 50.0 °F - 26.6 °F 40% 30.01 in 10.0 mi ESE 4.6 mph 23.0 mph N/A   Clear
5:55 AM 48.2 °F - 26.6 °F 43% 30.00 in 10.0 mi ESE 9.2 mph - N/A   Clear
6:15 AM 46.4 °F 43.5 °F 26.6 °F 46% 30.01 in 10.0 mi SSE 5.8 mph - N/A   Clear
6:35 AM 48.2 °F - 26.6 °F 43% 30.01 in 10.0 mi ESE 6.9 mph 19.6 mph N/A   Clear
6:55 AM 46.4 °F 43.5 °F 28.4 °F 50% 30.01 in 10.0 mi ESE 5.8 mph - N/A   Clear
7:15 AM 46.4 °F - 28.4 °F 50% 30.01 in 10.0 mi Calm Calm - N/A   Clear
7:35 AM 50.0 °F - 28.4 °F 43% 30.01 in 10.0 mi South 6.9 mph - N/A   Clear
7:55 AM 53.6 °F - 26.6 °F 35% 30.01 in 10.0 mi SSE 9.2 mph 16.1 mph N/A   Clear
8:35 AM 57.2 °F - 26.6 °F 31% 30.00 in 10.0 mi SE 4.6 mph - N/A   Clear
8:55 AM 60.8 °F - 28.4 °F 29% 29.99 in 10.0 mi ESE 9.2 mph - N/A   Clear
9:55 AM 69.8 °F - 15.8 °F 13% 29.99 in 10.0 mi East 8.1 mph - N/A   Clear
10:15 AM 69.8 °F - 14.0 °F 12% 29.99 in 10.0 mi SW 10.4 mph 20.7 mph N/A   Clear
10:35 AM 68.0 °F - 15.8 °F 13% 29.99 in 10.0 mi West 13.8 mph 35.7 mph N/A   Clear
10:55 AM 69.8 °F - 15.8 °F 13% 29.99 in 10.0 mi South 20.7 mph 35.7 mph N/A   Clear
11:15 AM 69.8 °F - 15.8 °F 13% 29.98 in 10.0 mi SW 19.6 mph 28.8 mph N/A   Clear
11:35 AM 69.8 °F - 15.8 °F 13% 29.98 in 10.0 mi South 12.7 mph 32.2 mph N/A   Clear
11:55 AM 71.6 °F - 15.8 °F 12% 29.98 in 10.0 mi South 23.0 mph 36.8 mph N/A   Clear
12:15 PM 71.6 °F - 15.8 °F 12% 29.97 in 10.0 mi SW 18.4 mph 28.8 mph N/A   Clear
12:35 PM 71.6 °F - 15.8 °F 12% 29.97 in 10.0 mi SW 15.0 mph 38.0 mph N/A   Clear
12:55 PM 71.6 °F - 15.8 °F 12% 29.97 in 10.0 mi SSW 15.0 mph 39.1 mph N/A   Clear
1:15 PM 71.6 °F - 15.8 °F 12% 29.97 in 10.0 mi SW 24.2 mph 49.5 mph N/A   Clear
1:35 PM 71.6 °F - 15.8 °F 12% 29.95 in 10.0 mi SSW 28.8 mph 39.1 mph N/A   Clear
1:55 PM 71.6 °F - 19.4 °F 14% 29.95 in 10.0 mi South 24.2 mph 38.0 mph N/A   Clear
2:15 PM 71.6 °F - 17.6 °F 13% 29.95 in 10.0 mi SSW 27.6 mph 55.2 mph N/A   Clear
2:35 PM 71.6 °F - 21.2 °F 15% 29.95 in 10.0 mi SW 19.6 mph 38.0 mph N/A   Clear
2:55 PM 71.6 °F - 21.2 °F 15% 29.94 in 10.0 mi WSW 16.1 mph 41.4 mph N/A   Clear
3:15 PM 69.8 °F - 21.2 °F 16% 29.94 in 10.0 mi SW 34.5 mph 48.3 mph N/A   Clear
3:35 PM 69.8 °F - 21.2 °F 16% 29.95 in 10.0 mi SSW 17.3 mph 55.2 mph N/A   Clear
3:55 PM 69.8 °F - 21.2 °F 16% 29.94 in 10.0 mi SW 29.9 mph 55.2 mph N/A   Clear
4:15 PM 69.8 °F - 19.4 °F 15% 29.94 in 10.0 mi South 26.5 mph 48.3 mph N/A   Clear
4:35 PM 69.8 °F - 17.6 °F 14% 29.94 in 10.0 mi SW 33.4 mph 41.4 mph N/A   Clear
4:55 PM 69.8 °F - 19.4 °F 15% 29.93 in 10.0 mi SSW 31.1 mph 41.4 mph N/A   Clear
5:15 PM 68.0 °F - 21.2 °F 17% 29.94 in 10.0 mi SW 13.8 mph 28.8 mph N/A   Clear
5:35 PM 68.0 °F - 23.0 °F 18% 29.94 in 10.0 mi SW 21.9 mph 29.9 mph N/A   Clear
5:55 PM 66.2 °F - 19.4 °F 17% 29.94 in 10.0 mi SW 20.7 mph 29.9 mph N/A   Clear
6:15 PM 66.2 °F - 21.2 °F 18% 29.96 in 10.0 mi WSW 16.1 mph 27.6 mph N/A   Clear
6:35 PM 62.6 °F - 28.4 °F 27% 29.97 in 10.0 mi West 6.9 mph 24.2 mph N/A   Clear
6:55 PM 59.0 °F - 30.2 °F 34% 29.97 in 10.0 mi West 17.3 mph 34.5 mph N/A   Clear
7:15 PM 57.2 °F - 32.0 °F 38% 29.97 in 10.0 mi WNW 21.9 mph 29.9 mph N/A   Clear
7:35 PM 57.2 °F - 30.2 °F 36% 29.98 in 10.0 mi SW 15.0 mph 24.2 mph N/A   Clear
7:55 PM 57.2 °F - 30.2 °F 36% 30.00 in 10.0 mi West 17.3 mph 23.0 mph N/A   Clear
8:15 PM 55.4 °F - 30.2 °F 38% 30.01 in 10.0 mi West 13.8 mph 17.3 mph N/A   Clear
8:35 PM 53.6 °F - 32.0 °F 44% 30.03 in 10.0 mi NNW 4.6 mph - N/A   Clear
8:55 PM 51.8 °F - 32.0 °F 47% 30.04 in 10.0 mi NW 9.2 mph - N/A   Clear
9:15 PM 53.6 °F - 32.0 °F 44% 30.03 in 10.0 mi WSW 15.0 mph - N/A   Clear
9:35 PM 51.8 °F - 32.0 °F 47% 30.03 in 10.0 mi West 16.1 mph - N/A   Clear
9:55 PM 50.0 °F - 32.0 °F 50% 30.04 in 10.0 mi West 13.8 mph 19.6 mph N/A   Clear
10:15 PM 50.0 °F - 32.0 °F 50% 30.05 in 10.0 mi Calm Calm - N/A   Clear
10:35 PM 48.2 °F - 32.0 °F 54% 30.05 in 10.0 mi West 9.2 mph 17.3 mph N/A   Clear
10:55 PM 48.2 °F - 30.2 °F 50% 30.05 in 10.0 mi Calm Calm - N/A   Clear
11:15 PM 44.6 °F - 28.4 °F 53% 30.05 in 10.0 mi Calm Calm - N/A   Clear
11:35 PM 44.6 °F 41.4 °F 28.4 °F 53% 30.06 in 10.0 mi South 5.8 mph - N/A   Clear
11:55 PM 41.0 °F - 26.6 °F 57% 30.05 in 10.0 mi Calm Calm - N/A   Clear